GW4764 Weather Reports


time (UTC)temp
C
wind
direction
speed
KPH
gust
KPH
rain 1hr
cm
rain 24hr
cm
rain mn
cm
humidity
%
barometer
mb
20260506164504 8 13 4.8 11.3 0.00 0.00 0.00 57 1012.8
20260506163004 9 284 6.4 12.9 0.00 0.00 0.00 58 1012.8
20260506161508 8 5 3.2 14.5 0.00 0.00 0.00 57 1012.9
20260506160016 8 360 3.2 11.3 0.00 0.00 0.00 56 1012.9
20260506154519 8 49 1.6 11.3 0.00 0.00 0.00 61 1012.6
20260506153003 8 231 1.6 8.0 0.00 0.03 0.00 57 1012.4
20260506151507 8 36 4.8 12.9 0.00 0.03 0.00 59 1012.4
20260506150010 8 311 3.2 9.7 0.00 0.03 0.00 62 1012.4
20260506144515 8 26 4.8 8.0 0.00 0.03 0.00 62 1012.3
20260506143026 7 44 1.6 6.4 0.00 0.03 0.00 63 1011.9
20260506141504 7 339 3.2 6.4 0.00 0.03 0.00 65 1011.8
20260506140006 7 25 1.6 6.4 0.00 0.03 0.00 68 1011.7
20260506134513 7 333 1.6 9.7 0.00 0.03 0.00 69 1011.7
20260506133016 6 336 1.6 9.7 0.00 0.03 0.00 70 1011.6
20260506131521 6 30 4.8 11.3 0.00 0.03 0.00 71 1011.5
20260506130010 6 13 3.2 11.3 0.00 0.03 0.00 71 1011.3
20260506124510 6 309 3.2 11.3 0.00 0.03 0.00 72 1011.0
20260506123019 6 29 4.8 12.9 0.00 0.03 0.00 76 1010.8
20260506121518 6 11 1.6 4.8 0.00 0.03 0.00 81 1010.4
20260506120035 5 330 0.0 3.2 0.00 0.03 0.00 84 1010.3
20260506114510 4 5 0.0 4.8 0.00 0.03 0.00 88 1010.3
20260506113011 3 276 0.0 0.0 0.00 0.03 0.00 88 1009.8
20260506111515 2 276 0.0 0.0 0.00 0.03 0.00 86 1009.9
20260506110026 2 276 0.0 0.0 0.00 0.03 0.00 85 1009.5
20260506104526 3 276 0.0 0.0 0.00 0.03 0.00 82 1009.4
20260506103023 3 276 0.0 0.0 0.00 0.03 0.00 81 1009.1
20260506101515 5 276 0.0 0.0 0.00 0.03 0.00 78 1009.2
20260506100022 5 276 0.0 3.2 0.00 0.03 0.00 75 1009.3
20260506094532 6 307 0.0 4.8 0.00 0.03 0.00 72 1008.7
20260506093040 6 360 0.0 4.8 0.00 0.03 0.00 71 1008.4
20260506091512 6 291 0.0 3.2 0.00 0.03 0.00 71 1008.7
20260506090017 5 312 0.0 3.2 0.00 0.03 0.00 72 1008.5
20260506084520 5 312 0.0 3.2 0.00 0.03 0.00 74 1008.3
20260506083023 5 312 0.0 1.6 0.00 0.03 0.00 70 1008.2
20260506081508 5 309 0.0 0.0 0.00 0.03 0.00 71 1008.5
20260506073004 6 309 0.0 0.0 0.00 0.03 0.00 66 1008.4
20260506071507 7 337 0.0 3.2 0.00 0.03 0.00 63 1008.3
20260506061504 7 299 1.6 4.8 0.00 0.03 0.00 60 1008.6
20260506044518 7 300 0.0 3.2 0.00 0.05 0.00 59 1008.3
20260506043018 7 288 0.0 3.2 0.00 0.05 0.00 60 1008.1
20260506041524 8 268 1.6 3.2 0.00 0.05 0.00 58 1008.1
20260506040024 8 282 0.0 3.2 0.00 0.05 0.00 59 1008.2
20260506034510 8 244 0.0 3.2 0.00 0.05 0.05 59 1008.3
20260506033013 8 263 0.0 3.2 0.00 0.05 0.05 60 1008.1
20260506031521 7 248 0.0 3.2 0.00 0.05 0.05 63 1008.2
20260506030022 7 248 0.0 3.2 0.00 0.05 0.05 61 1008.3
20260506024532 8 234 0.0 3.2 0.00 0.05 0.05 61 1008.2
20260506023011 8 236 0.0 3.2 0.00 0.05 0.05 63 1008.3
20260506021518 8 230 0.0 1.6 0.00 0.05 0.05 62 1008.1
20260506020022 8 223 0.0 3.2 0.00 0.05 0.05 59 1008.2
20260506014526 8 241 0.0 3.2 0.00 0.05 0.05 60 1007.9
20260506013027 8 286 0.0 3.2 0.00 0.05 0.05 54 1007.7
20260506011517 9 228 0.0 3.2 0.00 0.05 0.05 59 1007.8
20260506010019 9 259 0.0 3.2 0.00 0.05 0.05 51 1007.6
20260506004524 10 246 0.0 8.0 0.00 0.05 0.05 50 1007.7
20260506003026 10 263 3.2 8.0 0.00 0.05 0.05 49 1007.7
20260506001526 10 273 3.2 12.9 0.00 0.05 0.05 49 1007.6
20260506000015 10 326 3.2 6.4 0.00 0.05 0.05 48 1007.5
20260505234546 10 208 3.2 6.4 0.00 0.05 0.05 49 1007.2
20260505233026 10 249 1.6 8.0 0.00 0.05 0.05 46 1007.1
20260505231531 11 219 0.0 12.9 0.00 0.05 0.05 48 1007.1
20260505230005 11 253 1.6 6.4 0.00 0.05 0.05 47 1007.0
20260505224504 11 244 4.8 12.9 0.00 0.05 0.05 45 1007.1
20260505223009 11 263 4.8 12.9 0.00 0.05 0.05 47 1007.2
20260505221505 11 269 6.4 12.9 0.00 0.05 0.05 52 1007.1
20260505220008 11 244 6.4 12.9 0.00 0.05 0.05 52 1007.1
20260505214504 11 256 4.8 16.1 0.00 0.05 0.05 54 1007.1
20260505213007 11 298 6.4 16.1 0.00 0.05 0.05 53 1007.1
20260505211505 11 347 6.4 14.5 0.00 0.05 0.05 58 1007.1
20260505210008 11 208 6.4 16.1 0.00 0.05 0.05 60 1007.2
20260505204508 11 287 4.8 12.9 0.00 0.05 0.05 64 1007.2
20260505203008 11 250 4.8 12.9 0.00 0.05 0.05 62 1007.1
20260505201505 11 333 3.2 12.9 0.00 0.05 0.05 59 1007.2
20260505200012 11 242 3.2 16.1 0.00 0.05 0.05 61 1007.1
20260505194510 11 254 4.8 12.9 0.00 0.05 0.05 66 1007.1
20260505193009 11 261 6.4 16.1 0.00 0.05 0.05 66 1007.3
20260505191510 11 250 4.8 17.7 0.00 0.05 0.05 64 1007.3
20260505190005 12 232 9.7 17.7 0.00 0.05 0.05 64 1007.2
20260505184517 12 238 3.2 12.9 0.00 0.05 0.05 63 1007.2
20260505183029 12 249 6.4 22.5 0.00 0.05 0.05 62 1007.1
20260505181512 12 244 8.0 16.1 0.00 0.05 0.05 63 1006.8
20260505180011 12 265 4.8 14.5 0.00 0.05 0.05 60 1006.7
20260505174511 12 244 4.8 16.1 0.00 0.05 0.05 63 1006.5
20260505173020 11 254 4.8 16.1 0.00 0.05 0.05 67 1006.4
20260505171514 11 322 3.2 14.5 0.00 0.05 0.05 68 1006.6
20260505170014 11 173 4.8 16.1 0.00 0.05 0.05 72 1006.3